GW3550 Weather Reports


Display with metric or nautical units.
time (UTC)temp
F
wind
direction
speed
MPH
gust
MPH
rain 1hr
in
rain 24hr
in
rain mn
in
humidity
%
barometer
mb
20260831064202 71 227 0.0 0.0 0.00 0.00 0.00 99 1022.7
20260831063658 71 227 0.0 0.0 0.00 0.00 0.00 99 1022.8
20260831063148 72 227 0.0 0.0 0.00 0.00 0.00 98 1023.0
20260831062642 72 227 0.0 0.0 0.00 0.00 0.00 99 1022.8
20260831062136 72 227 0.0 0.0 0.00 0.00 0.00 99 1022.9
20260831061634 72 227 0.0 0.0 0.00 0.00 0.00 99 1022.9
20260831061131 72 227 0.0 0.0 0.00 0.00 0.00 99 1022.9
20260831060626 72 227 0.0 0.0 0.00 0.00 0.00 99 1023.0
20260831060120 72 227 0.0 0.0 0.00 0.00 0.00 98 1023.0
20260831055614 72 227 0.0 0.0 0.00 0.00 0.00 98 1023.0
20260831055110 72 227 0.0 0.0 0.00 0.00 0.00 98 1023.0
20260831054610 72 227 0.0 0.0 0.00 0.00 0.00 98 1022.9
20260831054109 73 227 0.0 0.0 0.00 0.00 0.00 98 1022.9
20260831053608 72 227 0.0 0.0 0.00 0.00 0.00 98 1023.2
20260831053102 73 227 0.0 0.0 0.00 0.00 0.00 98 1023.1
20260831052601 73 227 0.0 0.0 0.00 0.00 0.00 98 1023.3
20260831052056 73 227 0.0 0.0 0.00 0.00 0.00 97 1023.3
20260831051554 73 227 0.0 0.0 0.00 0.00 0.00 97 1023.2
20260831051053 73 227 0.0 0.0 0.00 0.00 0.00 97 1023.1
20260831050553 73 227 0.0 0.0 0.00 0.00 0.00 97 1023.1
20260831050051 73 227 0.0 0.0 0.00 0.00 0.00 97 1023.1
20260831045551 73 227 0.0 0.0 0.00 0.00 0.00 96 1023.2
20260831045046 74 227 0.0 0.0 0.00 0.00 0.00 96 1023.1
20260831044542 74 227 0.0 0.0 0.00 0.00 0.00 96 1023.1
20260831044037 74 227 0.0 0.0 0.00 0.00 0.00 97 1023.0
20260831043537 74 227 0.0 0.0 0.00 0.00 0.00 97 1023.2
20260831043033 74 227 0.0 0.0 0.00 0.00 0.00 96 1023.4
20260831042532 74 227 0.0 0.0 0.00 0.00 0.00 96 1023.2
20260831042032 74 227 0.0 0.0 0.00 0.00 0.00 96 1023.3
20260831041527 74 227 0.0 0.0 0.00 0.00 0.00 96 1023.3
20260831041021 74 227 0.0 0.0 0.00 0.00 0.00 96 1023.0
20260831040516 74 227 0.0 0.0 0.00 0.00 0.00 96 1023.2
20260831040016 74 227 0.0 0.0 0.00 0.00 0.00 96 1023.3
20260831035514 74 227 0.0 0.0 0.00 0.00 0.00 96 1023.3
20260831035009 74 227 0.0 0.0 0.00 0.00 0.00 95 1023.3
20260831034457 74 227 0.0 0.0 0.00 0.00 0.00 95 1023.4
20260831033953 75 227 0.0 0.0 0.00 0.00 0.00 95 1023.2
20260831033448 75 227 0.0 0.0 0.00 0.00 0.00 94 1023.3
20260831032943 75 227 0.0 0.0 0.00 0.00 0.00 94 1023.4
20260831032437 75 227 0.0 0.0 0.00 0.00 0.00 94 1023.1
20260831031932 75 227 0.0 0.0 0.00 0.00 0.00 94 1023.2
20260831031426 75 227 0.0 0.0 0.00 0.00 0.00 93 1023.3
20260831030920 76 227 0.0 0.0 0.00 0.00 0.00 93 1023.2
20260831030420 76 227 0.0 0.0 0.00 0.00 0.00 92 1023.4
20260831025918 76 227 0.0 0.0 0.00 0.00 0.00 92 1023.4
20260831025417 75 227 0.0 0.0 0.00 0.00 0.00 92 1023.4
20260831024913 75 227 0.0 0.0 0.00 0.00 0.00 92 1023.5
20260831024413 75 227 0.0 0.0 0.00 0.00 0.00 92 1023.5
20260831023908 76 227 0.0 0.0 0.00 0.00 0.00 91 1023.4
20260831023406 76 227 0.0 0.0 0.00 0.00 0.00 90 1023.6
20260831022901 76 227 0.0 0.0 0.00 0.00 0.00 90 1023.4
20260831022400 77 227 0.0 0.0 0.00 0.00 0.00 89 1023.5
20260831021855 76 227 0.0 0.0 0.00 0.00 0.00 89 1023.5
20260831021354 76 227 0.0 0.0 0.00 0.00 0.00 89 1023.6
20260831020850 77 227 0.0 0.0 0.00 0.00 0.00 88 1023.3
20260831020350 77 227 0.0 0.0 0.00 0.00 0.00 89 1023.3
20260831015845 77 82 0.0 0.0 0.00 0.00 0.00 88 1023.0
20260831015341 76 82 0.0 0.0 0.00 0.00 0.00 89 1023.2
20260831014841 77 82 0.0 0.0 0.00 0.00 0.00 88 1023.1
20260831014336 77 82 0.0 0.0 0.00 0.00 0.00 88 1023.2
20260831013832 77 82 0.0 0.0 0.00 0.00 0.00 88 1023.1
20260831013331 77 82 0.0 0.0 0.00 0.00 0.00 87 1023.1
20260831012826 77 82 0.0 0.0 0.00 0.00 0.00 87 1023.1
20260831012322 78 82 0.0 0.0 0.00 0.00 0.00 86 1022.9
20260831011821 78 82 0.0 0.0 0.00 0.00 0.00 85 1022.9
20260831011316 78 82 0.0 0.0 0.00 0.00 0.00 85 1022.9
20260831010812 78 82 0.0 0.0 0.00 0.00 0.00 84 1022.6
20260831010307 78 82 0.0 0.0 0.00 0.00 0.00 83 1022.6
20260831005803 78 81 0.0 0.0 0.00 0.00 0.00 83 1022.6
20260831005258 79 82 0.0 0.0 0.00 0.00 0.00 83 1022.4
20260831004752 79 82 0.0 0.0 0.00 0.00 0.00 82 1022.4
20260831004248 79 82 0.0 0.0 0.00 0.00 0.00 81 1022.2
20260831003743 80 81 0.0 0.0 0.00 0.00 0.00 80 1022.3
20260831003240 80 82 0.0 0.0 0.00 0.00 0.00 80 1022.3
20260831002739 81 81 0.0 0.0 0.00 0.00 0.00 79 1022.4
20260831002238 81 81 0.0 1.0 0.00 0.00 0.00 78 1022.3
20260831001735 81 81 1.0 2.0 0.00 0.00 0.00 78 1022.2
20260831001229 82 51 0.0 0.0 0.00 0.00 0.00 77 1022.2
20260831000726 82 51 1.0 2.0 0.00 0.00 0.00 76 1022.3
20260831000221 82 10 0.0 0.0 0.00 0.00 0.00 77 1022.4
20260830235720 82 10 0.0 0.0 0.00 0.00 0.00 76 1022.2
20260830235215 83 10 0.0 0.0 0.00 0.00 0.00 75 1022.4
20260830234710 83 10 0.0 0.0 0.00 0.00 0.00 74 1022.0
20260830234206 84 10 0.0 0.0 0.00 0.00 0.00 73 1022.1
20260830233701 85 10 0.0 1.0 0.00 0.00 0.00 72 1022.3
20260830233157 85 22 1.0 2.0 0.00 0.00 0.00 70 1022.3
20260830232652 85 31 1.0 2.0 0.00 0.00 0.00 69 1022.2
20260830232148 85 58 1.0 3.0 0.00 0.00 0.00 69 1022.1
20260830231645 85 59 1.0 3.0 0.00 0.00 0.00 69 1022.0
20260830231144 86 11 2.0 3.0 0.00 0.00 0.00 68 1022.0
20260830230639 86 52 2.0 3.0 0.00 0.00 0.00 67 1022.1
20260830230133 86 30 3.0 4.0 0.00 0.00 0.00 67 1022.0
20260830225628 85 30 2.0 6.0 0.00 0.00 0.00 67 1022.1
20260830225123 85 314 0.0 1.0 0.00 0.00 0.00 68 1021.9
20260830224621 85 184 0.0 1.0 0.00 0.00 0.00 68 1022.0
20260830224117 85 67 1.0 2.0 0.00 0.00 0.00 68 1022.1
20260830223614 85 34 2.0 4.0 0.00 0.00 0.00 67 1022.0
20260830223109 85 108 2.0 3.0 0.00 0.00 0.00 66 1022.0
20260830222609 86 78 1.0 4.0 0.00 0.00 0.00 66 1022.0
20260830222105 87 68 4.0 6.0 0.00 0.00 0.00 63 1022.1
20260830221601 88 17 4.0 7.0 0.00 0.00 0.00 61 1022.0
20260830221057 88 19 0.0 3.0 0.00 0.00 0.00 62 1022.0
20260830220556 88 17 2.0 2.0 0.00 0.00 0.00 61 1021.9
20260830220049 88 120 1.0 1.0 0.00 0.00 0.00 61 1021.9
20260830215544 86 69 2.0 2.0 0.00 0.00 0.00 65 1022.1
20260830215038 85 169 0.0 1.0 0.00 0.00 0.00 68 1022.1
20260830214533 85 343 2.0 2.0 0.00 0.00 0.00 65 1022.1
20260830214028 86 199 0.0 3.0 0.00 0.00 0.00 66 1022.1
20260830213527 88 217 1.0 3.0 0.00 0.00 0.00 63 1022.1
20260830213023 89 313 0.0 2.0 0.00 0.00 0.00 61 1022.1
20260830212518 89 246 0.0 1.0 0.00 0.00 0.00 61 1021.9
20260830212013 87 286 0.0 0.0 0.00 0.00 0.00 62 1021.9
20260830211508 84 339 0.0 0.0 0.00 0.00 0.00 74 1022.2
20260830211003 84 347 0.0 0.0 0.00 0.00 0.00 74 1022.3
20260830210503 85 354 0.0 0.0 0.00 0.00 0.00 71 1022.2
20260830210002 85 3 0.0 0.0 0.00 0.00 0.00 71 1022.2
20260830205500 85 3 0.0 0.0 0.00 0.00 0.00 68 1022.4
20260830204955 85 3 0.0 0.0 0.00 0.00 0.00 68 1022.4
20260830204454 85 326 0.0 1.0 0.00 0.00 0.00 67 1022.4
20260830203944 85 104 1.0 2.0 0.00 0.00 0.00 68 1022.4
20260830203440 85 17 1.0 4.0 0.00 0.00 0.00 67 1022.5
20260830202939 87 52 2.0 4.0 0.00 0.00 0.00 64 1022.5
20260830202434 87 39 3.0 4.0 0.00 0.00 0.00 63 1022.5
20260830201930 86 190 1.0 3.0 0.00 0.00 0.00 66 1022.5
20260830201424 87 358 3.0 6.0 0.00 0.00 0.00 62 1022.4
20260830200920 88 36 4.0 7.0 0.00 0.00 0.00 62 1022.5
20260830200419 88 21 3.0 4.0 0.00 0.00 0.00 63 1022.5
20260830195908 91 140 2.0 3.0 0.00 0.00 0.00 60 1022.6
20260830195408 91 251 2.0 3.0 0.00 0.00 0.00 58 1022.7
20260830194907 92 188 0.0 2.0 0.00 0.00 0.00 58 1022.8
20260830194406 90 203 2.0 2.0 0.00 0.00 0.00 60 1022.9
20260830193901 86 95 0.0 1.0 0.00 0.00 0.00 69 1022.7
20260830193400 84 184 0.0 1.0 0.00 0.00 0.00 72 1023.1
20260830192856 85 135 2.0 3.0 0.00 0.00 0.00 68 1023.0
20260830192356 86 84 0.0 3.0 0.00 0.00 0.00 67 1023.2
20260830191851 86 147 2.0 3.0 0.00 0.00 0.00 65 1023.1
20260830191346 87 82 0.0 2.0 0.00 0.00 0.00 66 1023.1
20260830190842 86 79 1.0 4.0 0.00 0.00 0.00 69 1023.3
20260830190341 84 182 0.0 1.0 0.00 0.00 0.00 74 1023.4
20260830185834 85 228 1.0 1.0 0.00 0.00 0.00 71 1023.4
20260830185330 85 192 0.0 0.0 0.00 0.00 0.00 70 1023.4
20260830184825 84 203 0.0 1.0 0.00 0.00 0.00 70 1023.7
20260830184324 85 209 0.0 1.0 0.00 0.00 0.00 69 1023.6
20260830183819 85 235 2.0 3.0 0.00 0.00 0.00 70 1023.6
20260830183319 84 83 0.0 2.0 0.00 0.00 0.00 70 1023.7
20260830182815 84 11 1.0 2.0 0.00 0.00 0.00 70 1023.7
20260830182310 85 108 2.0 3.0 0.00 0.00 0.00 69 1023.9
20260830181807 84 114 1.0 3.0 0.00 0.00 0.00 72 1023.8
20260830181301 85 202 0.0 1.0 0.00 0.00 0.00 70 1023.9
20260830180801 86 79 2.0 4.0 0.00 0.00 0.00 69 1024.1
20260830180255 89 357 1.0 2.0 0.00 0.00 0.00 64 1024.2
20260830175749 85 206 0.0 1.0 0.00 0.00 0.00 71 1024.5
20260830175245 87 48 2.0 4.0 0.00 0.00 0.00 68 1024.4
20260830174745 84 55 1.0 6.0 0.00 0.00 0.00 71 1024.5
20260830174241 85 80 1.0 2.0 0.00 0.00 0.00 70 1024.5
20260830173740 85 87 0.0 2.0 0.00 0.00 0.00 72 1024.6
20260830173235 83 243 0.0 3.0 0.00 0.00 0.00 75 1024.8
20260830172732 84 145 2.0 4.0 0.00 0.00 0.00 73 1024.8
20260830172229 84 27 1.0 2.0 0.00 0.00 0.00 71 1024.9
20260830171724 85 61 1.0 4.0 0.00 0.00 0.00 72 1025.0
20260830171219 85 224 0.0 2.0 0.00 0.00 0.00 73 1024.9
20260830170713 85 68 1.0 2.0 0.00 0.00 0.00 70 1024.9
20260830170213 84 42 3.0 6.0 0.00 0.00 0.00 73 1025.1
20260830165712 86 357 1.0 3.0 0.00 0.00 0.00 71 1025.1
20260830165208 87 100 4.0 6.0 0.00 0.00 0.00 71 1025.1
20260830164704 85 165 0.0 1.0 0.00 0.00 0.00 74 1025.3
20260830164200 83 197 0.0 4.0 0.00 0.00 0.00 77 1025.3
20260830163656 84 220 1.0 3.0 0.00 0.00 0.00 75 1025.4
20260830163151 82 204 1.0 4.0 0.00 0.00 0.00 79 1025.5
20260830162646 82 86 1.0 3.0 0.00 0.00 0.00 79 1025.3
20260830162141 83 47 1.0 4.0 0.00 0.00 0.00 79 1025.5
20260830161636 82 63 3.0 4.0 0.00 0.00 0.00 78 1025.7
20260830161131 82 71 0.0 1.0 0.00 0.00 0.00 79 1025.6
20260830160627 85 58 4.0 6.0 0.00 0.00 0.00 74 1025.5
20260830160122 84 1 2.0 4.0 0.00 0.00 0.00 78 1025.7
20260830155618 83 89 3.0 6.0 0.00 0.00 0.00 78 1025.6
20260830155114 81 124 0.0 3.0 0.00 0.00 0.00 82 1025.8
20260830154608 81 108 0.0 1.0 0.00 0.00 0.00 83 1025.7
20260830154105 81 201 1.0 3.0 0.00 0.00 0.00 83 1025.9
20260830153600 82 159 0.0 3.0 0.00 0.00 0.00 83 1025.8
20260830153055 83 144 2.0 7.0 0.00 0.00 0.00 81 1025.8
20260830152549 84 39 3.0 3.0 0.00 0.00 0.00 79 1025.8
20260830152048 82 145 1.0 2.0 0.00 0.00 0.00 81 1025.7
20260830151548 83 81 0.0 6.0 0.00 0.00 0.00 82 1025.8
20260830151043 79 145 3.0 6.0 0.00 0.00 0.00 87 1025.9
20260830150543 81 67 4.0 7.0 0.00 0.00 0.00 84 1025.8
20260830150037 79 94 3.0 4.0 0.00 0.00 0.00 85 1025.9
20260830145532 78 96 2.0 4.0 0.00 0.00 0.00 88 1026.1
20260830145027 78 70 1.0 3.0 0.00 0.00 0.00 89 1025.9
20260830144523 78 28 2.0 4.0 0.00 0.00 0.00 88 1025.8
20260830144018 79 51 1.0 6.0 0.00 0.00 0.00 88 1025.9
20260830143514 80 46 0.0 4.0 0.00 0.00 0.00 88 1026.1
20260830143012 79 188 2.0 3.0 0.00 0.00 0.00 87 1026.0
20260830142508 77 58 0.0 2.0 0.00 0.00 0.00 91 1025.9
20260830142002 77 30 2.0 4.0 0.00 0.00 0.00 90 1026.0
20260830141457 77 32 2.0 2.0 0.00 0.00 0.00 90 1026.1
20260830140952 77 23 0.0 2.0 0.00 0.00 0.00 91 1026.1
20260830140447 77 19 2.0 3.0 0.00 0.00 0.00 91 1025.9
20260830135946 76 31 2.0 2.0 0.00 0.00 0.00 93 1026.0
20260830135442 76 36 1.0 3.0 0.00 0.00 0.00 93 1026.0
20260830134937 76 17 0.0 0.0 0.00 0.00 0.00 94 1025.8
20260830134433 75 213 0.0 0.0 0.00 0.00 0.00 97 1025.8
20260830133928 75 55 0.0 3.0 0.00 0.00 0.00 98 1025.8
20260830133424 74 74 0.0 2.0 0.00 0.00 0.00 99 1025.7
20260830132919 74 49 0.0 1.0 0.00 0.00 0.00 99 1025.9
20260830132415 73 70 0.0 0.0 0.00 0.00 0.00 99 1026.0
20260830131914 73 70 0.0 0.0 0.00 0.00 0.00 99 1025.9
20260830131413 73 53 0.0 0.0 0.00 0.00 0.00 99 1025.8
20260830130908 73 53 0.0 0.0 0.00 0.00 0.00 99 1025.6
20260830130404 73 55 1.0 1.0 0.00 0.00 0.00 99 1025.9
20260830125902 72 55 0.0 1.0 0.00 0.00 0.00 99 1025.9
20260830125358 72 144 0.0 1.0 0.00 0.00 0.00 99 1026.0
20260830124856 72 145 0.0 0.0 0.00 0.00 0.00 99 1025.6
20260830124351 72 145 0.0 2.0 0.00 0.00 0.00 99 1025.7
20260830123848 72 145 1.0 1.0 0.00 0.00 0.00 99 1025.7
20260830123344 72 319 1.0 2.0 0.00 0.00 0.00 99 1025.6
20260830122842 71 149 0.0 0.0 0.00 0.00 0.00 99 1025.8
20260830122336 71 313 0.0 0.0 0.00 0.00 0.00 99 1025.7
20260830121832 71 313 0.0 0.0 0.00 0.00 0.00 99 1025.6
20260830121331 71 172 0.0 0.0 0.00 0.00 0.00 99 1025.4
20260830120826 71 198 0.0 0.0 0.00 0.00 0.00 99 1025.4
20260830120322 71 210 0.0 0.0 0.00 0.00 0.00 99 1025.4
20260830115818 71 216 0.0 0.0 0.00 0.00 0.00 99 1025.4
20260830115314 71 217 0.0 0.0 0.00 0.00 0.00 99 1025.3
20260830114804 70 217 0.0 0.0 0.00 0.00 0.00 99 1025.2
20260830114300 70 231 0.0 0.0 0.00 0.00 0.00 99 1025.2
20260830113755 70 232 0.0 0.0 0.00 0.00 0.00 99 1025.1
20260830113250 69 232 0.0 0.0 0.00 0.00 0.00 99 1025.0
20260830112745 69 232 0.0 0.0 0.00 0.00 0.00 99 1024.8
20260830112241 69 232 0.0 0.0 0.00 0.00 0.00 99 1024.8
20260830111736 69 232 0.0 0.0 0.00 0.00 0.00 99 1024.8
20260830111227 69 232 0.0 0.0 0.00 0.00 0.00 99 1024.7
20260830110726 69 232 0.0 0.0 0.00 0.00 0.00 99 1024.5
20260830110223 69 232 0.0 0.0 0.00 0.00 0.00 99 1024.3
20260830105722 69 232 0.0 0.0 0.00 0.00 0.00 99 1024.2
20260830105218 69 232 0.0 0.0 0.00 0.00 0.00 99 1024.4
20260830104715 69 231 0.0 0.0 0.00 0.00 0.00 99 1023.8
20260830104211 70 231 0.0 0.0 0.00 0.00 0.00 99 1024.1
20260830103710 69 232 0.0 0.0 0.00 0.00 0.00 99 1023.9
20260830103206 70 232 0.0 0.0 0.00 0.00 0.00 99 1024.1
20260830102703 70 228 0.0 0.0 0.00 0.00 0.00 99 1024.1
20260830102200 70 228 0.0 0.0 0.00 0.00 0.00 99 1023.9
20260830101656 70 228 0.0 0.0 0.00 0.00 0.00 99 1023.9
20260830101151 70 233 0.0 0.0 0.00 0.00 0.00 99 1024.1
20260830100650 70 234 0.0 0.0 0.00 0.00 0.00 99 1023.9
20260830100144 70 233 0.0 0.0 0.00 0.00 0.00 99 1023.8
20260830095638 70 233 0.0 0.0 0.00 0.00 0.00 99 1023.9
20260830095135 70 236 0.0 0.0 0.00 0.00 0.00 99 1023.8
20260830094630 70 240 0.0 0.0 0.00 0.00 0.00 99 1024.1
20260830094126 70 239 0.0 0.0 0.00 0.00 0.00 99 1024.1
20260830093621 70 238 0.0 0.0 0.00 0.00 0.00 99 1024.1
20260830093117 70 238 0.0 0.0 0.00 0.00 0.00 99 1024.2
20260830092612 70 238 0.0 0.0 0.00 0.00 0.00 99 1024.1
20260830092109 70 238 0.0 0.0 0.00 0.00 0.00 99 1023.9
20260830091604 70 237 0.0 0.0 0.00 0.00 0.00 99 1023.9
20260830091103 70 237 0.0 0.0 0.00 0.00 0.00 99 1023.8
20260830090557 70 237 0.0 0.0 0.00 0.00 0.00 99 1023.9
20260830090052 70 237 0.0 0.0 0.00 0.00 0.00 99 1023.9
20260830085547 70 237 0.0 0.0 0.00 0.00 0.00 99 1023.8
20260830085043 70 237 0.0 0.0 0.00 0.00 0.00 99 1024.1
20260830084538 70 237 0.0 0.0 0.00 0.00 0.00 99 1023.8
20260830084032 70 237 0.0 0.0 0.00 0.00 0.00 99 1024.3
20260830083528 70 237 0.0 0.0 0.00 0.00 0.00 99 1023.9
20260830083028 70 237 0.0 0.0 0.00 0.00 0.00 99 1024.1
20260830082523 70 237 0.0 0.0 0.00 0.00 0.00 99 1023.8
20260830082019 71 237 0.0 0.0 0.00 0.00 0.00 99 1023.7
20260830081514 71 237 0.0 0.0 0.00 0.00 0.00 99 1023.7
20260830081013 71 237 0.0 0.0 0.00 0.00 0.00 99 1023.7
20260830080509 71 237 0.0 0.0 0.00 0.00 0.00 99 1023.7
20260830080009 71 237 0.0 0.0 0.00 0.00 0.00 99 1023.7
20260830075503 71 237 0.0 0.0 0.00 0.00 0.00 99 1023.7
20260830074959 71 237 0.0 0.0 0.00 0.00 0.00 99 1023.5
20260830074454 71 237 0.0 0.0 0.00 0.00 0.00 99 1023.6
20260830073950 71 237 0.0 0.0 0.00 0.00 0.00 99 1023.7
20260830073446 71 237 0.0 0.0 0.00 0.00 0.00 99 1023.9
20260830072940 71 237 0.0 0.0 0.00 0.00 0.00 99 1023.8
20260830072437 71 237 0.0 0.0 0.00 0.00 0.00 99 1023.9
20260830071936 71 237 0.0 0.0 0.00 0.00 0.00 99 1023.7
20260830071431 71 237 0.0 0.0 0.00 0.00 0.00 99 1023.7
20260830070929 71 237 0.0 0.0 0.00 0.00 0.00 99 1023.8
20260830070425 71 237 0.0 0.0 0.00 0.00 0.00 99 1023.9
20260830065924 72 237 0.0 0.0 0.00 0.00 0.00 99 1023.8
20260830065424 71 237 0.0 0.0 0.00 0.00 0.00 99 1023.8
20260830064921 72 237 0.0 0.0 0.00 0.00 0.00 99 1023.8
20260830064418 72 237 0.0 0.0 0.00 0.00 0.00 99 1024.1